CEB261 RPLL-RPVE

Flight info

Callsign CEB261
Flight time 0h 57m
Altitude 25000
Route VERDE2R VERDE W24 TAPER TAPER7B
Aircraft A20N/M-SDE2E3FGHIRWXY/LB1

Departure

Time 2026-04-25 13:41
Airport Ninoy Aquino International Airport (RPLL)

Arrival

Time 2026-04-25 14:38
Airport Godofredo P. Ramos Airport (RPVE)
Time Latitude Longitude Altitude Speed Heading
2026-04-25 12:03 14.51615 121.01569 84 ft 0 kts 46°
2026-04-25 13:22 14.51607 121.01560 84 ft 2 kts 46°
2026-04-25 13:22 14.51596 121.01548 84 ft 2 kts 46°
2026-04-25 13:23 14.51577 121.01528 84 ft 2 kts 46°
2026-04-25 13:23 14.51568 121.01518 84 ft 2 kts 46°
2026-04-25 13:23 14.51559 121.01507 84 ft 2 kts 72°
2026-04-25 13:23 14.51557 121.01492 84 ft 2 kts 103°
2026-04-25 13:24 14.51561 121.01482 84 ft 2 kts 124°
2026-04-25 13:24 14.51563 121.01479 84 ft 0 kts 131°
2026-04-25 13:24 14.51568 121.01473 84 ft 0 kts 136°
2026-04-25 13:26 14.51567 121.01475 84 ft 0 kts 136°
2026-04-25 13:26 14.51560 121.01482 84 ft 2 kts 135°
2026-04-25 13:26 14.51549 121.01493 84 ft 3 kts 135°
2026-04-25 13:27 14.51539 121.01505 84 ft 3 kts 136°
2026-04-25 13:27 14.51517 121.01526 84 ft 4 kts 135°
2026-04-25 13:27 14.51503 121.01540 84 ft 4 kts 134°
2026-04-25 13:28 14.51364 121.01581 84 ft 7 kts 140°
2026-04-25 13:28 14.51324 121.01621 84 ft 8 kts 134°
2026-04-25 13:29 14.51280 121.01667 84 ft 9 kts 135°
2026-04-25 13:29 14.51238 121.01711 84 ft 10 kts 135°
2026-04-25 13:29 14.51186 121.01765 84 ft 11 kts 134°
2026-04-25 13:30 14.51101 121.01852 84 ft 5 kts 135°
2026-04-25 13:30 14.51074 121.01881 84 ft 6 kts 135°
2026-04-25 13:30 14.51069 121.01885 84 ft 0 kts 135°
2026-04-25 13:32 14.51067 121.01887 84 ft 0 kts 135°
2026-04-25 13:32 14.51056 121.01899 84 ft 4 kts 135°
2026-04-25 13:32 14.51026 121.01924 84 ft 7 kts 164°
2026-04-25 13:33 14.50983 121.01884 84 ft 11 kts 240°
2026-04-25 13:33 14.50939 121.01806 84 ft 14 kts 240°
2026-04-25 13:33 14.50886 121.01709 84 ft 17 kts 240°
2026-04-25 13:33 14.50844 121.01633 84 ft 19 kts 240°
2026-04-25 13:34 14.50752 121.01467 84 ft 21 kts 239°
2026-04-25 13:34 14.50681 121.01340 84 ft 23 kts 240°
2026-04-25 13:34 14.50593 121.01182 84 ft 25 kts 240°
2026-04-25 13:34 14.50522 121.01056 84 ft 23 kts 238°
2026-04-25 13:35 14.50451 121.00925 84 ft 24 kts 242°
2026-04-25 13:35 14.50367 121.00777 84 ft 26 kts 244°
2026-04-25 13:35 14.50284 121.00634 84 ft 26 kts 241°
2026-04-25 13:35 14.50216 121.00506 84 ft 27 kts 240°
2026-04-25 13:36 14.50151 121.00386 84 ft 20 kts 240°
2026-04-25 13:36 14.50077 121.00253 84 ft 22 kts 240°
2026-04-25 13:36 14.50008 121.00130 84 ft 21 kts 240°
2026-04-25 13:36 14.49960 121.00042 84 ft 16 kts 240°
2026-04-25 13:37 14.49927 120.99982 84 ft 7 kts 237°
2026-04-25 13:37 14.49879 120.99963 84 ft 4 kts 156°
2026-04-25 13:37 14.49878 120.99963 84 ft 0 kts 154°
2026-04-25 13:38 14.49862 120.99972 84 ft 3 kts 151°
2026-04-25 13:38 14.49822 120.99995 84 ft 10 kts 151°
2026-04-25 13:39 14.49797 121.00022 84 ft 6 kts 108°
2026-04-25 13:39 14.49814 121.00066 84 ft 7 kts 56°
2026-04-25 13:39 14.49822 121.00081 84 ft 0 kts 60°
2026-04-25 13:40 14.49825 121.00087 84 ft 9 kts 60°
2026-04-25 13:40 14.49992 121.00391 84 ft 90 kts 60°
2026-04-25 13:40 14.50396 121.01112 117 ft 148 kts 58°
2026-04-25 13:40 14.50971 121.02085 674 ft 158 kts 59°
2026-04-25 13:41 14.51540 121.03079 1215 ft 174 kts 59°
2026-04-25 13:41 14.52156 121.04176 1738 ft 192 kts 60°
2026-04-25 13:41 14.52847 121.05415 2259 ft 206 kts 60°
2026-04-25 13:41 14.53494 121.06574 2778 ft 219 kts 60°
2026-04-25 13:42 14.54173 121.07793 3311 ft 234 kts 60°
2026-04-25 13:42 14.54884 121.09068 3900 ft 247 kts 60°
2026-04-25 13:42 14.55761 121.10637 4601 ft 262 kts 60°
2026-04-25 13:42 14.56517 121.11990 5180 ft 268 kts 60°
2026-04-25 13:43 14.57364 121.13505 5817 ft 272 kts 60°
2026-04-25 13:43 14.58131 121.15153 6448 ft 274 kts 75°
2026-04-25 13:43 14.58253 121.17017 6870 ft 276 kts 99°
2026-04-25 13:43 14.57587 121.18784 7045 ft 277 kts 125°
2026-04-25 13:44 14.56245 121.20091 7045 ft 276 kts 149°
2026-04-25 13:44 14.54772 121.20863 7054 ft 276 kts 156°
2026-04-25 13:44 14.53158 121.21571 7053 ft 276 kts 158°
2026-04-25 13:44 14.51414 121.22301 7053 ft 276 kts 158°
2026-04-25 13:45 14.49908 121.22926 7080 ft 276 kts 158°
2026-04-25 13:45 14.48136 121.23659 7630 ft 278 kts 158°
2026-04-25 13:45 14.46353 121.24397 8252 ft 281 kts 158°
2026-04-25 13:45 14.44736 121.25058 8808 ft 284 kts 160°
2026-04-25 13:46 14.43091 121.25383 9326 ft 286 kts 181°
2026-04-25 13:46 14.41408 121.25032 9776 ft 288 kts 204°
2026-04-25 13:46 14.39801 121.23867 10036 ft 289 kts 228°
2026-04-25 13:46 14.38615 121.22234 10580 ft 297 kts 236°
2026-04-25 13:47 14.37495 121.20438 11203 ft 309 kts 238°
2026-04-25 13:47 14.36350 121.18546 11827 ft 321 kts 238°
2026-04-25 13:47 14.35170 121.16584 12451 ft 332 kts 238°
2026-04-25 13:47 14.34061 121.14739 13019 ft 341 kts 238°
2026-04-25 13:48 14.32726 121.12517 13685 ft 351 kts 238°
2026-04-25 13:48 14.31441 121.10381 14307 ft 360 kts 238°
2026-04-25 13:48 14.30307 121.08495 14744 ft 369 kts 238°
2026-04-25 13:48 14.29001 121.06322 14972 ft 375 kts 238°
2026-04-25 13:49 14.27654 121.04112 14984 ft 375 kts 235°
2026-04-25 13:49 14.25890 121.02193 15003 ft 375 kts 216°
2026-04-25 13:49 14.23629 121.00989 15501 ft 378 kts 201°
2026-04-25 13:49 14.21216 121.00246 16035 ft 381 kts 187°
2026-04-25 13:50 14.18542 121.00215 16690 ft 385 kts 177°
2026-04-25 13:50 14.15885 121.00361 17372 ft 389 kts 176°
2026-04-25 13:50 14.13237 121.00517 18012 ft 392 kts 176°
2026-04-25 13:50 14.10596 121.00658 18627 ft 396 kts 177°
2026-04-25 13:51 14.07922 121.00786 19230 ft 400 kts 177°
2026-04-25 13:51 14.05101 121.00911 19844 ft 403 kts 178°
2026-04-25 13:51 14.02303 121.01029 20442 ft 407 kts 178°
2026-04-25 13:51 14.00021 121.01123 20918 ft 410 kts 178°
2026-04-25 13:52 13.97143 121.01241 21510 ft 413 kts 178°
2026-04-25 13:52 13.94307 121.01354 22070 ft 417 kts 178°
2026-04-25 13:52 13.91432 121.01469 22621 ft 420 kts 178°
2026-04-25 13:52 13.88878 121.01571 23100 ft 423 kts 178°
2026-04-25 13:53 13.85909 121.01689 23640 ft 427 kts 178°
2026-04-25 13:53 13.83028 121.01804 24143 ft 430 kts 178°
2026-04-25 13:53 13.80054 121.01921 24643 ft 433 kts 178°
2026-04-25 13:53 13.77066 121.02041 24944 ft 436 kts 178°
2026-04-25 13:54 13.74111 121.02159 24983 ft 436 kts 178°
2026-04-25 13:54 13.71094 121.02280 24991 ft 436 kts 178°
2026-04-25 13:54 13.69072 121.02361 24993 ft 436 kts 178°
2026-04-25 13:54 13.65044 121.02522 24996 ft 436 kts 178°
2026-04-25 13:55 13.62048 121.02643 24996 ft 436 kts 178°
2026-04-25 13:55 13.59053 121.02763 24997 ft 436 kts 178°
2026-04-25 13:55 13.56086 121.02881 24997 ft 436 kts 178°
2026-04-25 13:55 13.53097 121.03117 24990 ft 436 kts 171°
2026-04-25 13:56 13.50268 121.03848 24994 ft 436 kts 160°
2026-04-25 13:56 13.47675 121.05046 24995 ft 436 kts 150°
2026-04-25 13:56 13.45130 121.06717 24999 ft 436 kts 145°
2026-04-25 13:56 13.42677 121.08482 24998 ft 436 kts 144°
2026-04-25 13:57 13.40192 121.10283 24997 ft 436 kts 145°
2026-04-25 13:57 13.39457 121.10811 24997 ft 436 kts 145°
2026-04-25 13:57 13.35254 121.13791 24997 ft 436 kts 146°
2026-04-25 13:57 13.32799 121.15513 24997 ft 436 kts 146°
2026-04-25 13:58 13.30302 121.17261 24997 ft 436 kts 146°
2026-04-25 13:58 13.27851 121.18977 24997 ft 436 kts 146°
2026-04-25 13:58 13.25368 121.20717 24997 ft 436 kts 146°
2026-04-25 13:58 13.22853 121.22479 24997 ft 436 kts 146°
2026-04-25 13:59 13.20368 121.24221 24997 ft 436 kts 146°
2026-04-25 13:59 13.17867 121.25974 24997 ft 436 kts 146°
2026-04-25 13:59 13.15364 121.27728 24997 ft 436 kts 146°
2026-04-25 13:59 13.13726 121.28876 24997 ft 436 kts 146°
2026-04-25 14:00 13.11271 121.30596 24997 ft 436 kts 146°
2026-04-25 14:00 13.10409 121.31199 24997 ft 436 kts 146°
2026-04-25 14:01 12.98315 121.39657 24997 ft 436 kts 145°
2026-04-25 14:01 12.95788 121.41428 24997 ft 436 kts 146°
2026-04-25 14:01 12.93314 121.43160 24997 ft 436 kts 146°
2026-04-25 14:02 12.90803 121.44915 24997 ft 436 kts 146°
2026-04-25 14:02 12.88727 121.46362 24995 ft 435 kts 146°
2026-04-25 14:02 12.86092 121.48193 24622 ft 434 kts 146°
2026-04-25 14:02 12.85401 121.48673 24484 ft 433 kts 146°
2026-04-25 14:03 12.81498 121.51389 23604 ft 427 kts 146°
2026-04-25 14:03 12.79296 121.52924 23082 ft 423 kts 146°
2026-04-25 14:03 12.76896 121.54599 22461 ft 420 kts 146°
2026-04-25 14:03 12.74495 121.56276 21820 ft 418 kts 146°
2026-04-25 14:04 12.72126 121.57929 21096 ft 411 kts 146°
2026-04-25 14:04 12.69792 121.59559 20318 ft 405 kts 146°
2026-04-25 14:04 12.67513 121.61150 19551 ft 400 kts 146°
2026-04-25 14:04 12.65240 121.62737 18777 ft 396 kts 146°
2026-04-25 14:05 12.62963 121.64326 17996 ft 392 kts 146°
2026-04-25 14:05 12.60741 121.65878 17572 ft 388 kts 146°
2026-04-25 14:05 12.58516 121.67443 17138 ft 386 kts 145°
2026-04-25 14:05 12.56330 121.68979 16671 ft 383 kts 146°
2026-04-25 14:06 12.54148 121.70503 16186 ft 380 kts 146°
2026-04-25 14:06 12.51988 121.72010 15697 ft 377 kts 146°
2026-04-25 14:06 12.49826 121.73518 15201 ft 374 kts 146°
2026-04-25 14:06 12.47705 121.74996 14712 ft 372 kts 146°
2026-04-25 14:07 12.45570 121.76484 14217 ft 369 kts 146°
2026-04-25 14:07 12.43469 121.77947 13731 ft 366 kts 146°
2026-04-25 14:07 12.41401 121.79386 13247 ft 364 kts 146°
2026-04-25 14:07 12.39333 121.80825 12765 ft 361 kts 146°
2026-04-25 14:08 12.37172 121.82163 12272 ft 358 kts 152°
2026-04-25 14:08 12.34936 121.83187 11795 ft 354 kts 160°
2026-04-25 14:08 12.32602 121.83960 11317 ft 350 kts 163°
2026-04-25 14:08 12.30289 121.84644 10847 ft 346 kts 164°
2026-04-25 14:09 12.27984 121.85315 10525 ft 338 kts 164°
2026-04-25 14:09 12.25773 121.85960 10390 ft 325 kts 164°
2026-04-25 14:09 12.23647 121.86585 10224 ft 313 kts 164°
2026-04-25 14:09 12.22284 121.86989 10176 ft 303 kts 164°
2026-04-25 14:10 12.19731 121.87748 10106 ft 284 kts 164°
2026-04-25 14:10 12.17907 121.88291 9976 ft 274 kts 164°
2026-04-25 14:10 12.16253 121.88782 9723 ft 271 kts 164°
2026-04-25 14:10 12.14523 121.89295 9458 ft 267 kts 164°
2026-04-25 14:11 12.12769 121.89817 9190 ft 262 kts 164°
2026-04-25 14:11 12.11046 121.90330 8938 ft 258 kts 163°
2026-04-25 14:11 12.09355 121.90835 8717 ft 252 kts 163°
2026-04-25 14:11 12.07746 121.91314 8505 ft 247 kts 163°
2026-04-25 14:12 12.06079 121.91811 8289 ft 241 kts 164°
2026-04-25 14:12 12.04497 121.92277 8067 ft 237 kts 166°
2026-04-25 14:12 12.02873 121.92328 7763 ft 235 kts 197°
2026-04-25 14:12 12.01511 121.91510 7453 ft 233 kts 229°
2026-04-25 14:13 12.00770 121.90095 7167 ft 231 kts 260°
2026-04-25 14:13 12.00859 121.88483 7090 ft 231 kts 291°
2026-04-25 14:13 12.01739 121.87142 7079 ft 232 kts 321°
2026-04-25 14:13 12.03160 121.86414 7089 ft 232 kts 343°
2026-04-25 14:14 12.04715 121.85976 7084 ft 232 kts 346°
2026-04-25 14:14 12.06253 121.85571 7082 ft 232 kts 345°
2026-04-25 14:14 12.07805 121.85149 7081 ft 232 kts 345°
2026-04-25 14:14 12.09361 121.84721 7080 ft 232 kts 349°
2026-04-25 14:15 12.10946 121.84765 7069 ft 232 kts 20°
2026-04-25 14:15 12.11445 121.84984 7072 ft 232 kts 31°
2026-04-25 14:15 12.12928 121.87153 7082 ft 232 kts 84°
2026-04-25 14:15 12.12746 121.88753 7085 ft 232 kts 114°
2026-04-25 14:16 12.11773 121.90047 7085 ft 232 kts 146°
2026-04-25 14:16 12.10315 121.90702 7094 ft 232 kts 164°
2026-04-25 14:16 12.08755 121.91127 7087 ft 232 kts 166°
2026-04-25 14:16 12.07186 121.91539 7083 ft 232 kts 165°
2026-04-25 14:17 12.05629 121.91963 7082 ft 232 kts 165°
2026-04-25 14:17 12.04087 121.92387 7080 ft 232 kts 169°
2026-04-25 14:17 12.02516 121.92311 7064 ft 232 kts 204°
2026-04-25 14:17 12.01262 121.91331 7073 ft 232 kts 236°
2026-04-25 14:18 12.00682 121.89809 7074 ft 232 kts 266°
2026-04-25 14:18 12.00930 121.88217 7073 ft 232 kts 296°
2026-04-25 14:18 12.01937 121.86962 7073 ft 232 kts 327°
2026-04-25 14:18 12.03398 121.86330 7085 ft 232 kts 344°
2026-04-25 14:19 12.04958 121.85908 7082 ft 232 kts 346°
2026-04-25 14:19 12.06517 121.85498 7081 ft 232 kts 345°
2026-04-25 14:19 12.08054 121.85077 7081 ft 232 kts 345°
2026-04-25 14:19 12.09141 121.84773 7081 ft 232 kts 346°
2026-04-25 14:20 12.10369 121.84640 7064 ft 231 kts
2026-04-25 14:20 12.11374 121.84944 7071 ft 232 kts 30°
2026-04-25 14:20 12.12776 121.86566 7080 ft 232 kts 72°
2026-04-25 14:20 12.12926 121.88188 6812 ft 237 kts 102°
2026-04-25 14:21 12.12218 121.89655 6312 ft 244 kts 134°
2026-04-25 14:21 12.10785 121.90562 5873 ft 247 kts 162°
2026-04-25 14:21 12.09307 121.90986 5481 ft 251 kts 166°
2026-04-25 14:21 12.07502 121.91458 5005 ft 255 kts 165°
2026-04-25 14:22 12.05798 121.91918 4562 ft 259 kts 165°
2026-04-25 14:22 12.04050 121.92397 4178 ft 258 kts 168°
2026-04-25 14:22 12.02319 121.92337 4070 ft 245 kts 202°
2026-04-25 14:22 12.01053 121.91308 4071 ft 228 kts 237°
2026-04-25 14:23 12.00511 121.89838 4074 ft 222 kts 265°
2026-04-25 14:23 12.00692 121.88289 4074 ft 222 kts 292°
2026-04-25 14:23 12.01545 121.87005 4074 ft 222 kts 320°
2026-04-25 14:23 12.02878 121.86266 4082 ft 222 kts 342°
2026-04-25 14:24 12.04358 121.85844 4082 ft 222 kts 346°
2026-04-25 14:24 12.05850 121.85451 4081 ft 222 kts 345°
2026-04-25 14:24 12.07341 121.85046 4081 ft 222 kts 345°
2026-04-25 14:24 12.08816 121.84632 4081 ft 221 kts 345°
2026-04-25 14:25 12.10346 121.84377 4068 ft 221 kts
2026-04-25 14:25 12.11783 121.84869 4075 ft 221 kts 35°
2026-04-25 14:25 12.12802 121.86016 4080 ft 221 kts 64°
2026-04-25 14:25 12.13000 121.86493 4081 ft 221 kts 74°
2026-04-25 14:26 12.12742 121.89040 4085 ft 221 kts 122°
2026-04-25 14:26 12.11686 121.90152 4085 ft 221 kts 150°
2026-04-25 14:26 12.10259 121.90713 4090 ft 222 kts 164°
2026-04-25 14:26 12.08847 121.91094 4085 ft 221 kts 166°
2026-04-25 14:27 12.07508 121.91447 4083 ft 221 kts 165°
2026-04-25 14:27 12.06033 121.91849 4081 ft 221 kts 165°
2026-04-25 14:27 12.04567 121.92262 4081 ft 221 kts 165°
2026-04-25 14:27 12.03053 121.92430 4060 ft 221 kts 194°
2026-04-25 14:28 12.01754 121.91670 4073 ft 221 kts 230°
2026-04-25 14:28 12.01122 121.90499 4074 ft 221 kts 257°
2026-04-25 14:28 12.01003 121.88930 4084 ft 221 kts 269°
2026-04-25 14:28 12.00824 121.87485 4073 ft 221 kts 249°
2026-04-25 14:29 12.00117 121.86097 4084 ft 221 kts 238°
2026-04-25 14:29 11.99303 121.84809 4082 ft 221 kts 236°
2026-04-25 14:29 11.98443 121.83525 4081 ft 221 kts 235°
2026-04-25 14:29 11.97564 121.82239 4081 ft 221 kts 234°
2026-04-25 14:30 11.96689 121.80965 4081 ft 221 kts 234°
2026-04-25 14:30 11.94963 121.78458 3901 ft 220 kts 234°
2026-04-25 14:30 11.94098 121.77200 3888 ft 220 kts 234°
2026-04-25 14:31 11.93222 121.75926 3884 ft 220 kts 234°
2026-04-25 14:31 11.92418 121.74762 3882 ft 220 kts 233°
2026-04-25 14:31 11.91270 121.73752 3868 ft 220 kts 201°
2026-04-25 14:31 11.89783 121.73601 3869 ft 215 kts 166°
2026-04-25 14:32 11.88557 121.74109 3879 ft 203 kts 153°
2026-04-25 14:32 11.87389 121.74745 3879 ft 201 kts 151°
2026-04-25 14:32 11.86084 121.75465 3880 ft 201 kts 152°
2026-04-25 14:32 11.84877 121.76135 3844 ft 202 kts 146°
2026-04-25 14:33 11.83989 121.77236 3570 ft 201 kts 106°
2026-04-25 14:33 11.83964 121.78616 3379 ft 200 kts 72°
2026-04-25 14:33 11.84519 121.79913 3176 ft 199 kts 60°
2026-04-25 14:33 11.85202 121.81128 2952 ft 198 kts 60°
2026-04-25 14:34 11.85877 121.82352 2731 ft 198 kts 61°
2026-04-25 14:34 11.86511 121.83572 2516 ft 197 kts 62°
2026-04-25 14:34 11.87127 121.84797 2366 ft 185 kts 63°
2026-04-25 14:34 11.87650 121.85844 2079 ft 178 kts 63°
2026-04-25 14:35 11.88234 121.87009 1797 ft 167 kts 63°
2026-04-25 14:35 11.88743 121.88020 1587 ft 155 kts 63°
2026-04-25 14:35 11.89199 121.88927 1410 ft 142 kts 63°
2026-04-25 14:35 11.89640 121.89807 1183 ft 133 kts 63°
2026-04-25 14:36 11.90006 121.90574 911 ft 131 kts 63°
2026-04-25 14:36 11.90402 121.91414 763 ft 131 kts 62°
2026-04-25 14:36 11.90829 121.92217 682 ft 131 kts 61°
2026-04-25 14:36 11.91255 121.93027 515 ft 131 kts 62°
2026-04-25 14:37 11.91659 121.93834 322 ft 130 kts 62°
2026-04-25 14:37 11.92071 121.94652 139 ft 130 kts 62°
2026-04-25 14:37 11.92475 121.95448 19 ft 123 kts 60°
2026-04-25 14:37 11.92785 121.96063 14 ft 59 kts 63°
2026-04-25 14:38 11.92896 121.96283 14 ft 26 kts 64°
2026-04-25 14:38 11.92954 121.96409 14 ft 8 kts 73°
2026-04-25 14:38 11.92945 121.96464 14 ft 9 kts 133°
2026-04-25 14:38 11.92886 121.96497 14 ft 10 kts 153°
2026-04-25 14:39 11.92838 121.96523 14 ft 7 kts 152°
2026-04-25 14:39 11.92789 121.96529 14 ft 8 kts 210°
2026-04-25 14:39 11.92754 121.96480 14 ft 9 kts 244°
2026-04-25 14:39 11.92726 121.96423 14 ft 8 kts 243°
2026-04-25 14:40 11.92703 121.96375 14 ft 3 kts 243°
2026-04-25 14:40 11.92684 121.96365 14 ft 4 kts 168°
2026-04-25 14:40 11.92660 121.96376 14 ft 2 kts 158°
2026-04-25 14:40 11.92655 121.96378 14 ft 0 kts 153°
2026-04-25 14:41 11.92655 121.96379 14 ft 0 kts 153°